Time Stamp,30min,24hr,,,,,,
2022-04-15 09:11:11,,,,,,,,
2022-04-15 09:21:11,,,,,,,,
2022-04-15 09:31:11,0,,,,,,,
2022-04-15 09:41:11,0,,,,,,,
2022-04-15 09:51:11,0,,,,,,,
2022-04-15 10:01:11,0,,,,,,,
2022-04-15 10:11:11,0,,,,,,,
2022-04-15 10:21:11,0,,,,,,,
2022-04-15 10:31:11,0,,,,,,,
2022-04-15 10:41:11,0,,,,,,,
2022-04-15 10:51:11,0,,,,,,,
2022-04-15 11:01:11,0,,,,,,,
2022-04-15 11:11:11,0,,,,,,,
2022-04-15 11:21:11,0,,,,,,,
2022-04-15 11:31:11,0,,,,,,,
2022-04-15 11:41:11,0,,,,,,,
2022-04-15 11:51:11,0,,,,,,,
2022-04-15 12:01:11,0,,,,,,,
2022-04-15 12:11:11,0,,,,,,,
2022-04-15 12:21:11,0,,,,,,,
2022-04-15 12:31:11,0,,,,,,,
2022-04-15 12:41:11,0,,,,,,,
2022-04-15 12:51:11,0,,,,,,,
2022-04-15 13:01:11,0,,,,,,,
2022-04-15 13:11:11,0,,,,,,,
2022-04-15 13:21:11,0,,,,,,,
2022-04-15 13:31:11,0,,,,,,,
2022-04-15 13:41:11,0,,,,,,,
2022-04-15 13:51:11,0,,,,,,,
2022-04-15 14:01:11,0,,,,,,,
2022-04-15 14:11:11,0,,,,,,,
2022-04-15 14:21:11,0,,,,,,,
2022-04-15 14:31:11,0,,,,,,,
2022-04-15 14:41:11,0,,,,,,,
2022-04-15 14:51:11,0,,,,,,,
2022-04-15 15:01:11,1,,,,,,,
2022-04-15 15:11:11,2,,,,,,,
2022-04-15 15:21:11,2,,,,,,,
2022-04-15 15:31:11,2,,,,,,,
2022-04-15 15:41:11,2,,,,,,,
2022-04-15 15:51:11,2,,,,,,,
2022-04-15 16:01:11,1,,,,,,,
2022-04-15 16:11:11,1,,,,,,,
2022-04-15 16:21:11,1,,,,,,,
2022-04-15 16:31:11,2,,,,,,,
2022-04-15 16:41:11,2.33,,,,,,,
2022-04-15 16:51:11,3.67,,,,,,,
2022-04-15 17:01:11,4,,,,,,,
2022-04-15 17:11:11,4,,,,,,,
2022-04-15 17:21:11,4,,,,,,,
2022-04-15 17:31:11,4,,,,,,,
2022-04-15 17:41:11,4,,,,,,,
2022-04-15 17:51:11,4,,,,,,,
2022-04-15 18:01:11,3.67,,,,,,,
2022-04-15 18:11:11,3.33,,,,,,,
2022-04-15 18:21:11,3,,,,,,,
2022-04-15 18:31:11,2,,,,,,,
2022-04-15 18:41:11,2,,,,,,,
2022-04-15 18:51:11,1,,,,,,,
2022-04-15 19:01:11,1,,,,,,,
2022-04-15 19:11:11,0,,,,,,,
2022-04-15 19:21:11,0,,,,,,,
2022-04-15 19:31:11,0,,,,,,,
2022-04-15 19:41:11,0,,,,,,,
2022-04-15 19:51:11,0,,,,,,,
2022-04-15 20:01:11,0,,,,,,,
2022-04-15 20:11:11,1,,,,,,,
2022-04-15 20:21:11,2.67,,,,,,,
2022-04-15 20:31:11,4.67,,,,,,,
2022-04-15 20:41:11,7,,,,,,,
2022-04-15 20:51:11,8,,,,,,,
2022-04-15 21:01:11,8.67,,,,,,,
2022-04-15 21:11:11,7.33,,,,,,,
2022-04-15 21:21:11,6,,,,,,,
2022-04-15 21:31:11,3.33,,,,,,,
2022-04-15 21:41:11,5.67,,,,,,,
2022-04-15 21:51:11,7.33,,,,,,,
2022-04-15 22:01:11,8.33,,,,,,,
2022-04-15 22:11:11,4,,,,,,,
2022-04-15 22:21:11,1,,,,,,,
2022-04-15 22:31:11,0,,,,,,,
2022-04-15 22:41:11,0,,,,,,,
2022-04-15 22:51:11,5.67,,,,,,,
2022-04-15 23:01:11,11.33,,,,,,,
2022-04-15 23:11:11,13.67,,,,,,,
2022-04-15 23:21:11,9.67,,,,,,,
2022-04-15 23:31:11,5.33,,,,,,,
2022-04-15 23:41:11,5,,,,,,,
2022-04-15 23:51:11,3.33,,,,,,,
2022-04-16 00:01:11,2,,,,,,,
2022-04-16 00:11:11,0,,,,,,,
2022-04-16 00:21:11,0,,,,,,,
2022-04-16 00:31:11,0,,,,,,,
2022-04-16 00:41:11,0,,,,,,,
2022-04-16 00:51:11,0,,,,,,,
2022-04-16 01:01:11,0,,,,,,,
2022-04-16 01:11:11,0,,,,,,,
2022-04-16 01:21:11,1.67,,,,,,,
2022-04-16 01:31:11,3.67,,,,,,,
2022-04-16 01:41:11,7,,,,,,,
2022-04-16 01:51:11,6.67,,,,,,,
2022-04-16 02:01:11,4.67,,,,,,,
2022-04-16 02:11:11,1.33,,,,,,,
2022-04-16 02:21:11,0,,,,,,,
2022-04-16 02:31:11,0,,,,,,,
2022-04-16 02:41:11,0,,,,,,,
2022-04-16 02:51:11,0,,,,,,,
2022-04-16 03:01:11,0,,,,,,,
2022-04-16 03:11:11,0,,,,,,,
2022-04-16 03:21:11,0,,,,,,,
2022-04-16 03:31:11,0,,,,,,,
2022-04-16 03:41:11,0,,,,,,,
2022-04-16 03:51:11,0,,,,,,,
2022-04-16 04:01:11,0,,,,,,,
2022-04-16 04:11:11,0,,,,,,,
2022-04-16 04:21:11,0,,,,,,,
2022-04-16 04:31:11,0,,,,,,,
2022-04-16 04:41:11,0,,,,,,,
2022-04-16 04:51:11,0,,,,,,,
2022-04-16 05:01:11,0,,,,,,,
2022-04-16 05:11:11,0,,,,,,,
2022-04-16 05:21:11,0,,,,,,,
2022-04-16 05:31:11,0,,,,,,,
2022-04-16 05:41:11,0,,,,,,,
2022-04-16 05:51:11,0,,,,,,,
2022-04-16 06:01:11,0,,,,,,,
2022-04-16 06:11:11,0,,,,,,,
2022-04-16 06:21:11,0,,,,,,,
2022-04-16 06:31:11,0,,,,,,,
2022-04-16 06:41:11,0,,,,,,,
2022-04-16 06:51:11,0,,,,,,,
2022-04-16 07:01:11,0,,,,,,,
2022-04-16 07:11:11,0,,,,,,,
2022-04-16 07:21:11,0,,,,,,,
2022-04-16 07:31:11,0,,,,,,,
2022-04-16 07:41:11,0,,,,,,,
2022-04-16 07:51:11,0,,,,,,,
2022-04-16 08:01:11,0,,,,,,,
2022-04-16 08:11:11,0,,,,,,,
2022-04-16 08:21:11,0,,,,,,,
2022-04-16 08:31:11,0,,,,,,,
2022-04-16 08:41:11,0,,,,,,,
2022-04-16 08:51:11,0,,,,,,,
2022-04-16 09:01:11,0,1.514,,,,,,
2022-04-16 09:11:11,0,1.514,,,,,,
2022-04-16 09:21:11,0,1.514,,,,,,
2022-04-16 09:31:11,0,1.514,,,,,,
2022-04-16 09:41:11,0,1.514,,,,,,
2022-04-16 09:51:11,0,1.514,,,,,,
2022-04-16 10:01:11,0,1.514,,,,,,
2022-04-16 10:11:11,0,1.514,,,,,,
2022-04-16 10:21:11,0,1.514,,,,,,
2022-04-16 10:31:11,0,1.514,,,,,,
2022-04-16 10:41:11,0,1.514,,,,,,
2022-04-16 10:51:11,0,1.514,,,,,,
2022-04-16 11:01:11,0,1.514,,,,,,
2022-04-16 11:11:11,0,1.514,,,,,,
2022-04-16 11:21:11,0,1.514,,,,,,
2022-04-16 11:31:11,0,1.514,,,,,,
2022-04-16 11:41:11,0,1.514,,,,,,
2022-04-16 11:51:11,0,1.514,,,,,,
2022-04-16 12:01:11,0,1.514,,,,,,
2022-04-16 12:11:11,0,1.514,,,,,,
2022-04-16 12:21:11,0,1.514,,,,,,
2022-04-16 12:31:11,0,1.514,,,,,,
2022-04-16 12:41:11,0,1.514,,,,,,
2022-04-16 12:51:11,0,1.514,,,,,,
2022-04-16 13:01:11,0,1.514,,,,,,
2022-04-16 13:11:11,0,1.514,,,,,,
2022-04-16 13:21:11,0,1.514,,,,,,
2022-04-16 13:31:11,0,1.514,,,,,,
2022-04-16 13:41:11,0,1.514,,,,,,
2022-04-16 13:51:11,0,1.514,,,,,,
2022-04-16 14:01:11,0,1.514,,,,,,
2022-04-16 14:11:11,0,1.514,,,,,,
2022-04-16 14:21:11,0,1.514,,,,,,
2022-04-16 14:31:11,0,1.514,,,,,,
2022-04-16 14:41:11,1.67,1.549,,,,,,
2022-04-16 14:51:11,4,1.597,,,,,,
2022-04-16 15:01:11,7,1.639,,,,,,
2022-04-16 15:11:11,8,1.674,,,,,,
2022-04-16 15:21:11,8,1.722,,,,,,
2022-04-16 15:31:11,7,1.743,,,,,,
2022-04-16 15:41:11,5.33,1.743,,,,,,
2022-04-16 15:51:11,3,1.743,,,,,,
2022-04-16 16:01:11,2.33,1.771,,,,,,
2022-04-16 16:11:11,3,1.785,,,,,,
2022-04-16 16:21:11,4.33,1.813,,,,,,
2022-04-16 16:31:11,4.67,1.826,,,,,,
2022-04-16 16:41:11,4.67,1.833,,,,,,
2022-04-16 16:51:11,4.67,1.833,,,,,,
2022-04-16 17:01:11,4.33,1.833,,,,,,
2022-04-16 17:11:11,3.67,1.826,,,,,,
2022-04-16 17:21:11,3.33,1.819,,,,,,
2022-04-16 17:31:11,3.33,1.819,,,,,,
2022-04-16 17:41:11,3.67,1.819,,,,,,
2022-04-16 17:51:11,4,1.819,,,,,,
2022-04-16 18:01:11,3.67,1.819,,,,,,
2022-04-16 18:11:11,3.33,1.819,,,,,,
2022-04-16 18:21:11,3,1.819,,,,,,
2022-04-16 18:31:11,2,1.819,,,,,,
2022-04-16 18:41:11,1,1.799,,,,,,
2022-04-16 18:51:11,0,1.799,,,,,,
2022-04-16 19:01:11,2.67,1.854,,,,,,
2022-04-16 19:11:11,4.67,1.896,,,,,,
2022-04-16 19:21:11,6.33,1.931,,,,,,
2022-04-16 19:31:11,5,1.958,,,,,,
2022-04-16 19:41:11,3,1.958,,,,,,
2022-04-16 19:51:11,2.67,1.986,,,,,,
2022-04-16 20:01:11,3,2.021,,,,,,
2022-04-16 20:11:11,5.33,2.049,,,,,,
2022-04-16 20:21:11,6,2.056,,,,,,
2022-04-16 20:31:11,5.67,2.042,,,,,,
2022-04-16 20:41:11,5.33,2.014,,,,,,
2022-04-16 20:51:11,5,1.993,,,,,,
2022-04-16 21:01:11,3.67,1.938,,,,,,
2022-04-16 21:11:11,1.67,1.896,,,,,,
2022-04-16 21:21:11,0,1.868,,,,,,
2022-04-16 21:31:11,2,1.91,,,,,,
2022-04-16 21:41:11,2,1.819,,,,,,
2022-04-16 21:51:11,2,1.757,,,,,,
2022-04-16 22:01:11,0,1.736,,,,,,
2022-04-16 22:11:11,0,1.736,,,,,,
2022-04-16 22:21:11,0,1.736,,,,,,
2022-04-16 22:31:11,0,1.736,,,,,,
2022-04-16 22:41:11,0,1.736,,,,,,
2022-04-16 22:51:11,0,1.618,,,,,,
2022-04-16 23:01:11,0,1.5,,,,,,
2022-04-16 23:11:11,0,1.451,,,,,,
2022-04-16 23:21:11,0,1.417,,,,,,
2022-04-16 23:31:11,0,1.389,,,,,,
2022-04-16 23:41:11,0,1.347,,,,,,
2022-04-16 23:51:11,0,1.347,,,,,,
2022-04-17 00:01:11,0,1.347,,,,,,
2022-04-17 00:11:11,0,1.347,,,,,,
2022-04-17 00:21:11,0,1.347,,,,,,
2022-04-17 00:31:11,0,1.347,,,,,,
2022-04-17 00:41:11,0,1.347,,,,,,
2022-04-17 00:51:11,0,1.347,,,,,,
2022-04-17 01:01:11,0,1.347,,,,,,
2022-04-17 01:11:11,0,1.347,,,,,,
2022-04-17 01:21:11,0,1.313,,,,,,
2022-04-17 01:31:11,0,1.271,,,,,,
2022-04-17 01:41:11,0,1.201,,,,,,
2022-04-17 01:51:11,0,1.174,,,,,,
2022-04-17 02:01:11,0,1.174,,,,,,
2022-04-17 02:11:11,0,1.174,,,,,,
2022-04-17 02:21:11,0,1.174,,,,,,
2022-04-17 02:31:11,0,1.174,,,,,,
2022-04-17 02:41:11,0,1.174,,,,,,
2022-04-17 02:51:11,0,1.174,,,,,,
2022-04-17 03:01:11,0,1.174,,,,,,
2022-04-17 03:11:11,0,1.174,,,,,,
2022-04-17 03:21:11,0,1.174,,,,,,
2022-04-17 03:31:11,0,1.174,,,,,,
2022-04-17 03:41:11,0,1.174,,,,,,
2022-04-17 03:51:11,0,1.174,,,,,,
2022-04-17 04:01:11,0,1.174,,,,,,
2022-04-17 04:11:11,0,1.174,,,,,,
2022-04-17 04:21:11,0,1.174,,,,,,
2022-04-17 04:31:11,0,1.174,,,,,,
2022-04-17 04:41:11,0,1.174,,,,,,
2022-04-17 04:51:11,0,1.174,,,,,,
2022-04-17 05:01:11,0,1.174,,,,,,
2022-04-17 05:11:11,0,1.174,,,,,,
2022-04-17 05:21:11,0,1.174,,,,,,
2022-04-17 05:31:11,0,1.174,,,,,,
2022-04-17 05:41:11,0,1.174,,,,,,
2022-04-17 05:51:11,0,1.174,,,,,,
2022-04-17 06:01:11,0,1.174,,,,,,
2022-04-17 06:11:11,0,1.174,,,,,,
2022-04-17 06:21:11,0,1.174,,,,,,
2022-04-17 06:31:11,0,1.174,,,,,,
2022-04-17 06:41:11,0,1.174,,,,,,
2022-04-17 06:51:11,0,1.174,,,,,,
2022-04-17 07:01:11,0,1.174,,,,,,
2022-04-17 07:11:11,0,1.174,,,,,,
2022-04-17 07:21:11,0,1.174,,,,,,
2022-04-17 07:31:11,0,1.174,,,,,,
2022-04-17 07:41:11,0,1.174,,,,,,
2022-04-17 07:51:11,0,1.174,,,,,,
2022-04-17 08:01:11,0,1.174,,,,,,
2022-04-17 08:11:11,0,1.174,,,,,,
2022-04-17 08:21:11,0,1.174,,,,,,
2022-04-17 08:31:11,0,1.174,,,,,,
2022-04-17 08:41:11,0,1.174,,,,,,
2022-04-17 08:51:11,0,1.174,,,,,,
2022-04-17 09:01:11,0,1.174,,,,,,
2022-04-17 09:11:11,0,1.174,,,,,,
2022-04-17 09:21:11,0,1.174,,,,,,
2022-04-17 09:31:11,0,1.174,,,,,,
2022-04-17 09:41:11,0,1.174,,,,,,
2022-04-17 09:51:11,0,1.174,,,,,,
2022-04-17 10:01:11,0,1.174,,,,,,
2022-04-17 10:11:11,0,1.174,,,,,,
2022-04-17 10:21:11,0,1.174,,,,,,
2022-04-17 10:31:11,0,1.174,,,,,,
2022-04-17 10:41:11,0,1.174,,,,,,
2022-04-17 10:51:11,0,1.174,,,,,,
2022-04-17 11:01:11,0,1.174,,,,,,
2022-04-17 11:11:11,0,1.174,,,,,,
2022-04-17 11:21:11,0,1.174,,,,,,
2022-04-17 11:31:11,0,1.174,,,,,,
2022-04-17 11:41:11,0,1.174,,,,,,
2022-04-17 11:51:11,0,1.174,,,,,,
2022-04-17 12:01:11,0,1.174,,,,,,
2022-04-17 12:11:11,0,1.174,,,,,,
2022-04-17 12:21:11,0,1.174,,,,,,
2022-04-17 12:31:11,0,1.174,,,,,,
2022-04-17 12:41:11,0,1.174,,,,,,
2022-04-17 12:51:11,0,1.174,,,,,,
2022-04-17 13:01:11,0,1.174,,,,,,
2022-04-17 13:11:11,0,1.174,,,,,,
2022-04-17 13:21:11,0,1.174,,,,,,
2022-04-17 13:31:11,0,1.174,,,,,,
2022-04-17 13:41:11,0,1.174,,,,,,
2022-04-17 13:51:11,0,1.174,,,,,,
2022-04-17 14:01:11,0,1.174,,,,,,
2022-04-17 14:11:11,0,1.174,,,,,,
2022-04-17 14:21:11,0,1.174,,,,,,
2022-04-17 14:31:11,0,1.174,,,,,,
2022-04-17 14:41:11,0,1.139,,,,,,
2022-04-17 14:51:11,0,1.09,,,,,,
2022-04-17 15:01:11,0,1.028,,,,,,
2022-04-17 15:11:11,0,0.972,,,,,,
2022-04-17 15:21:11,0,0.924,,,,,,
2022-04-17 15:31:11,0,0.882,,,,,,
2022-04-17 15:41:11,0,0.861,,,,,,
2022-04-17 15:51:11,0,0.861,,,,,,
2022-04-17 16:01:11,0,0.833,,,,,,
2022-04-17 16:11:11,1,0.819,,,,,,
2022-04-17 16:21:11,2,0.813,,,,,,
2022-04-17 16:31:11,3.33,0.806,,,,,,
2022-04-17 16:41:11,3.67,0.799,,,,,,
2022-04-17 16:51:11,3.67,0.792,,,,,,
2022-04-17 17:01:11,2.33,0.764,,,,,,
2022-04-17 17:11:11,1,0.743,,,,,,
2022-04-17 17:21:11,0,0.722,,,,,,
2022-04-17 17:31:11,0,0.694,,,,,,
2022-04-17 17:41:11,0,0.667,,,,,,
2022-04-17 17:51:11,0,0.639,,,,,,
2022-04-17 18:01:11,0,0.618,,,,,,
2022-04-17 18:11:11,0,0.597,,,,,,
2022-04-17 18:21:11,0,0.576,,,,,,
2022-04-17 18:31:11,0,0.576,,,,,,
2022-04-17 18:41:11,0,0.576,,,,,,
2022-04-17 18:51:11,0,0.576,,,,,,
2022-04-17 19:01:11,0,0.521,,,,,,
2022-04-17 19:11:11,0,0.479,,,,,,
2022-04-17 19:21:11,2.33,0.493,,,,,,
2022-04-17 19:31:11,3.67,0.493,,,,,,
2022-04-17 19:41:11,4.67,0.514,,,,,,
2022-04-17 19:51:11,2.33,0.486,,,,,,
2022-04-17 20:01:11,1,0.451,,,,,,
2022-04-17 20:11:11,0,0.403,,,,,,
2022-04-17 20:21:11,0,0.361,,,,,,
2022-04-17 20:31:11,0,0.333,,,,,,
2022-04-17 20:41:11,0,0.292,,,,,,
2022-04-17 20:51:11,0,0.257,,,,,,
2022-04-17 21:01:11,0,0.257,,,,,,
2022-04-17 21:11:11,0,0.257,,,,,,
2022-04-17 21:21:11,1.33,0.285,,,,,,
2022-04-17 21:31:11,3.33,0.285,,,,,,
2022-04-17 21:41:11,3.33,0.285,,,,,,
2022-04-17 21:51:11,2,0.285,,,,,,
2022-04-17 22:01:11,0,0.285,,,,,,
2022-04-17 22:11:11,0,0.285,,,,,,
2022-04-17 22:21:11,0,0.285,,,,,,
2022-04-17 22:31:11,0,0.285,,,,,,
2022-04-17 22:41:11,0,0.285,,,,,,
2022-04-17 22:51:11,0,0.285,,,,,,
2022-04-17 23:01:11,0,0.285,,,,,,
2022-04-17 23:11:11,0,0.285,,,,,,
2022-04-17 23:21:11,0,0.285,,,,,,
2022-04-17 23:31:11,0,0.285,,,,,,
2022-04-17 23:41:11,0,0.285,,,,,,
2022-04-17 23:51:11,0,0.285,,,,,,
2022-04-18 00:01:11,0,0.285,,,,,,
2022-04-18 00:11:11,0,0.285,,,,,,
2022-04-18 00:21:11,0,0.285,,,,,,
2022-04-18 00:31:11,0,0.285,,,,,,
2022-04-18 00:41:11,0,0.285,,,,,,
2022-04-18 00:51:11,0,0.285,,,,,,
2022-04-18 01:01:11,0,0.285,,,,,,
2022-04-18 01:11:11,0,0.285,,,,,,
2022-04-18 01:21:11,0,0.285,,,,,,
2022-04-18 01:31:11,0,0.285,,,,,,
2022-04-18 01:41:11,0,0.285,,,,,,
2022-04-18 01:51:11,0,0.285,,,,,,
2022-04-18 02:01:11,0,0.285,,,,,,
2022-04-18 02:11:11,0,0.285,,,,,,
2022-04-18 02:21:11,0,0.285,,,,,,
2022-04-18 02:31:11,0,0.285,,,,,,
2022-04-18 02:41:11,0,0.285,,,,,,
2022-04-18 02:51:11,0,0.285,,,,,,
2022-04-18 03:01:11,0,0.285,,,,,,
2022-04-18 03:11:11,0,0.285,,,,,,
2022-04-18 03:21:11,0,0.285,,,,,,
2022-04-18 03:31:11,0,0.285,,,,,,
2022-04-18 03:41:11,0,0.285,,,,,,
2022-04-18 03:51:11,0,0.285,,,,,,
2022-04-18 04:01:11,0,0.285,,,,,,
2022-04-18 04:11:11,0,0.285,,,,,,
2022-04-18 04:21:11,0,0.285,,,,,,
2022-04-18 04:31:11,0,0.285,,,,,,
2022-04-18 04:41:11,0,0.285,,,,,,
2022-04-18 04:51:11,0,0.285,,,,,,
2022-04-18 05:01:11,0,0.285,,,,,,
2022-04-18 05:11:11,0,0.285,,,,,,
2022-04-18 05:21:11,0,0.285,,,,,,
2022-04-18 05:31:11,0,0.285,,,,,,
2022-04-18 05:41:11,0,0.285,,,,,,
2022-04-18 05:51:11,0,0.285,,,,,,
2022-04-18 06:01:11,0,0.285,,,,,,
2022-04-18 06:11:11,0,0.285,,,,,,
2022-04-18 06:21:11,0,0.285,,,,,,
2022-04-18 06:31:11,0,0.285,,,,,,
2022-04-18 06:41:11,0,0.285,,,,,,
2022-04-18 06:51:11,0,0.285,,,,,,
2022-04-18 07:01:11,0,0.285,,,,,,
2022-04-18 07:11:11,0,0.285,,,,,,
2022-04-18 07:21:11,0,0.285,,,,,,
2022-04-18 07:31:11,0,0.285,,,,,,
2022-04-18 07:41:11,0,0.285,,,,,,
2022-04-18 07:51:11,0,0.285,,,,,,
2022-04-18 08:01:11,0,0.285,,,,,,
2022-04-18 08:11:11,0,0.285,,,,,,
2022-04-18 08:21:11,0,0.285,,,,,,
2022-04-18 08:31:11,0,0.285,,,,,,
2022-04-18 08:41:11,0,0.285,,,,,,
2022-04-18 08:51:11,0,0.285,,,,,,
2022-04-18 09:01:11,0,0.285,,,,,,
2022-04-18 09:11:11,0,0.285,,,,,,
2022-04-18 09:21:11,0,0.285,,,,,,
2022-04-18 09:31:11,0,0.285,,,,,,
2022-04-18 09:41:11,0,0.285,,,,,,
2022-04-18 09:51:11,0,0.285,,,,,,
2022-04-18 10:01:11,0,0.285,,,,,,
2022-04-18 10:11:11,0,0.285,,,,,,
2022-04-18 10:21:11,0,0.285,,,,,,
2022-04-18 10:31:11,0,0.285,,,,,,
2022-04-18 10:41:11,0,0.285,,,,,,
2022-04-18 10:51:11,0,0.285,,,,,,
2022-04-18 11:01:11,0,0.285,,,,,,
2022-04-18 11:11:11,0,0.285,,,,,,
2022-04-18 11:21:11,0,0.285,,,,,,
2022-04-18 11:31:11,0,0.285,,,,,,
2022-04-18 11:41:11,0,0.285,,,,,,
2022-04-18 11:51:11,0,0.285,,,,,,
2022-04-18 12:01:11,0,0.285,,,,,,
2022-04-18 12:11:11,0,0.285,,,,,,
2022-04-18 12:21:11,0,0.285,,,,,,
2022-04-18 12:31:11,0,0.285,,,,,,
2022-04-18 12:41:11,0,0.285,,,,,,
2022-04-18 12:51:11,0,0.285,,,,,,
2022-04-18 13:01:11,0,0.285,,,,,,
2022-04-18 13:11:11,0,0.285,,,,,,
2022-04-18 13:21:11,0,0.285,,,,,,
2022-04-18 13:31:11,0,0.285,,,,,,
2022-04-18 13:41:11,0,0.285,,,,,,
2022-04-18 13:51:11,0,0.285,,,,,,
2022-04-18 14:01:11,0,0.285,,,,,,
2022-04-18 14:11:11,0,0.285,,,,,,
2022-04-18 14:21:11,0,0.285,,,,,,
2022-04-18 14:31:11,0,0.285,,,,,,
2022-04-18 14:41:11,0,0.285,,,,,,
2022-04-18 14:51:11,0,0.285,,,,,,
2022-04-18 15:01:11,0,0.285,,,,,,
2022-04-18 15:11:11,1,0.306,,,,,,
2022-04-18 15:21:11,2,0.326,,,,,,
2022-04-18 15:31:11,3.33,0.354,,,,,,
2022-04-18 15:41:11,3.67,0.382,,,,,,
2022-04-18 15:51:11,3.67,0.403,,,,,,
2022-04-18 16:01:11,2.33,0.403,,,,,,
2022-04-18 16:11:11,2.33,0.41,,,,,,
2022-04-18 16:21:11,1.33,0.389,,,,,,
2022-04-18 16:31:11,1.33,0.361,,,,,,
2022-04-18 16:41:11,0,0.333,,,,,,
2022-04-18 16:51:11,0,0.313,,,,,,
2022-04-18 17:01:11,0,0.313,,,,,,
2022-04-18 17:11:11,0,0.313,,,,,,
2022-04-18 17:21:11,0,0.313,,,,,,
2022-04-18 17:31:11,1,0.333,,,,,,
2022-04-18 17:41:11,1,0.333,,,,,,
2022-04-18 17:51:11,1,0.333,,,,,,
2022-04-18 18:01:11,0,0.333,,,,,,
2022-04-18 18:11:11,1,0.354,,,,,,
2022-04-18 18:21:11,2,0.375,,,,,,
2022-04-18 18:31:11,2,0.375,,,,,,
2022-04-18 18:41:11,1,0.375,,,,,,
2022-04-18 18:51:11,1,0.396,,,,,,
2022-04-18 19:01:11,1,0.396,,,,,,
2022-04-18 19:11:11,1,0.396,,,,,,
2022-04-18 19:21:11,0,0.347,,,,,,
2022-04-18 19:31:11,0,0.319,,,,,,
2022-04-18 19:41:11,0,0.299,,,,,,
2022-04-18 19:51:11,0,0.299,,,,,,
2022-04-18 20:01:11,0,0.299,,,,,,
2022-04-18 20:11:11,0,0.299,,,,,,
2022-04-18 20:21:11,0,0.299,,,,,,
2022-04-18 20:31:11,0,0.299,,,,,,
2022-04-18 20:41:11,0,0.299,,,,,,
2022-04-18 20:51:11,0,0.299,,,,,,
2022-04-18 21:01:11,0,0.299,,,,,,
2022-04-18 21:11:11,0,0.299,,,,,,
2022-04-18 21:21:11,0,0.271,,,,,,
2022-04-18 21:31:11,0,0.229,,,,,,
2022-04-18 21:41:11,0,0.229,,,,,,
2022-04-18 21:51:11,0,0.229,,,,,,
2022-04-18 22:01:11,0,0.229,,,,,,
2022-04-18 22:11:11,0,0.229,,,,,,
2022-04-18 22:21:11,0,0.229,,,,,,
2022-04-18 22:31:11,0,0.229,,,,,,
2022-04-18 22:41:11,0,0.229,,,,,,
2022-04-18 22:51:11,0,0.229,,,,,,
2022-04-18 23:01:11,0,0.229,,,,,,
2022-04-18 23:11:11,0,0.229,,,,,,
2022-04-18 23:21:11,0,0.229,,,,,,
2022-04-18 23:31:11,0,0.229,,,,,,
2022-04-18 23:41:11,0,0.229,,,,,,
2022-04-18 23:51:11,0,0.229,,,,,,
2022-04-19 00:01:11,0,0.229,,,,,,
2022-04-19 00:11:11,0,0.229,,,,,,
2022-04-19 00:21:11,0,0.229,,,,,,
2022-04-19 00:31:11,0,0.229,,,,,,
2022-04-19 00:41:11,0,0.229,,,,,,
2022-04-19 00:51:11,0,0.229,,,,,,
2022-04-19 01:01:11,0,0.229,,,,,,
2022-04-19 01:11:11,0,0.229,,,,,,
2022-04-19 01:21:11,0,0.229,,,,,,
2022-04-19 01:31:11,0,0.229,,,,,,
2022-04-19 01:41:11,0,0.229,,,,,,
2022-04-19 01:51:11,0,0.229,,,,,,
2022-04-19 02:01:11,2,0.271,,,,,,
2022-04-19 02:11:11,3.33,0.299,,,,,,
2022-04-19 02:21:11,8.33,0.403,,,,,,
2022-04-19 02:31:11,8,0.438,,,,,,
2022-04-19 02:41:11,9.67,0.5,,,,,,
2022-04-19 02:51:11,6,0.528,,,,,,
2022-04-19 03:01:11,5.33,0.549,,,,,,
2022-04-19 03:11:11,2.33,0.549,,,,,,
2022-04-19 03:21:11,1,0.549,,,,,,
2022-04-19 03:31:11,0,0.549,,,,,,
2022-04-19 03:41:11,0,0.549,,,,,,
2022-04-19 03:51:11,0,0.549,,,,,,
2022-04-19 04:01:11,0,0.549,,,,,,
2022-04-19 04:11:11,0,0.549,,,,,,
2022-04-19 04:21:11,0,0.549,,,,,,
2022-04-19 04:31:11,0,0.549,,,,,,
2022-04-19 04:41:11,0,0.549,,,,,,
2022-04-19 04:51:11,0,0.549,,,,,,
2022-04-19 05:01:11,0,0.549,,,,,,
2022-04-19 05:11:11,0,0.549,,,,,,
2022-04-19 05:21:11,0,0.549,,,,,,
2022-04-19 05:31:11,0,0.549,,,,,,
2022-04-19 05:41:11,0,0.549,,,,,,
2022-04-19 05:51:11,0,0.549,,,,,,
2022-04-19 06:01:11,0,0.549,,,,,,
2022-04-19 06:11:11,0,0.549,,,,,,
2022-04-19 06:21:11,0,0.549,,,,,,
2022-04-19 06:31:11,0,0.549,,,,,,
2022-04-19 06:41:11,0,0.549,,,,,,
2022-04-19 06:51:11,0,0.549,,,,,,
2022-04-19 07:01:11,0,0.549,,,,,,
2022-04-19 07:11:11,0,0.549,,,,,,
2022-04-19 07:21:11,0,0.549,,,,,,
2022-04-19 07:31:11,0,0.549,,,,,,
2022-04-19 07:41:11,0,0.549,,,,,,
2022-04-19 07:51:11,0,0.549,,,,,,
2022-04-19 08:01:11,0,0.549,,,,,,
2022-04-19 08:11:11,0,0.549,,,,,,
2022-04-19 08:21:11,0,0.549,,,,,,
2022-04-19 08:31:11,0,0.549,,,,,,
2022-04-19 08:41:11,0,0.549,,,,,,
2022-04-19 08:51:11,0,0.549,,,,,,
2022-04-19 09:01:11,0,0.549,,,,,,
2022-04-19 09:11:11,0,0.549,,,,,,
2022-04-19 09:21:11,0,0.549,,,,,,
2022-04-19 09:31:11,0,0.549,,,,,,
2022-04-19 09:41:11,0,0.549,,,,,,
2022-04-19 09:51:11,0,0.549,,,,,,
2022-04-19 10:01:11,0,0.549,,,,,,
2022-04-19 10:11:11,0,0.549,,,,,,
2022-04-19 10:21:11,0,0.549,,,,,,
2022-04-19 10:31:11,0,0.549,,,,,,
2022-04-19 10:41:11,0,0.549,,,,,,
2022-04-19 10:51:11,0,0.549,,,,,,
2022-04-19 11:01:11,0,0.549,,,,,,
2022-04-19 11:11:11,0,0.549,,,,,,
2022-04-19 11:21:11,0,0.549,,,,,,
2022-04-19 11:31:11,0,0.549,,,,,,
2022-04-19 11:41:11,0,0.549,,,,,,
2022-04-19 11:51:11,0,0.549,,,,,,
2022-04-19 12:01:11,0,0.549,,,,,,
2022-04-19 12:11:11,0,0.549,,,,,,
2022-04-19 12:21:11,0,0.549,,,,,,
2022-04-19 12:31:11,0,0.549,,,,,,
2022-04-19 12:41:11,0,0.549,,,,,,
2022-04-19 12:51:11,0,0.549,,,,,,
2022-04-19 13:01:11,0,0.549,,,,,,
2022-04-19 13:11:11,0,0.549,,,,,,
2022-04-19 13:21:11,0,0.549,,,,,,
2022-04-19 13:31:11,0,0.549,,,,,,
2022-04-19 13:41:11,0,0.549,,,,,,
2022-04-19 13:51:11,0,0.549,,,,,,
2022-04-19 14:01:11,0,0.549,,,,,,
2022-04-19 14:11:11,0,0.549,,,,,,
2022-04-19 14:21:11,0,0.549,,,,,,
2022-04-19 14:31:11,0,0.549,,,,,,
2022-04-19 14:41:11,0,0.549,,,,,,
2022-04-19 14:51:11,0,0.549,,,,,,
2022-04-19 15:01:11,0,0.549,,,,,,
2022-04-19 15:11:11,0,0.528,,,,,,
2022-04-19 15:21:11,0,0.507,,,,,,
2022-04-19 15:31:11,0,0.479,,,,,,
2022-04-19 15:41:11,0,0.451,,,,,,
2022-04-19 15:51:11,0,0.431,,,,,,
2022-04-19 16:01:11,0,0.431,,,,,,
2022-04-19 16:11:11,0,0.403,,,,,,
2022-04-19 16:21:11,0,0.403,,,,,,
2022-04-19 16:31:11,0,0.403,,,,,,
2022-04-19 16:41:11,0,0.403,,,,,,
2022-04-19 16:51:11,0,0.403,,,,,,
2022-04-19 17:01:11,0,0.403,,,,,,
2022-04-19 17:11:11,0,0.403,,,,,,
2022-04-19 17:21:11,0,0.403,,,,,,
2022-04-19 17:31:11,0,0.382,,,,,,
2022-04-19 17:41:11,0,0.382,,,,,,
2022-04-19 17:51:11,0,0.382,,,,,,
2022-04-19 18:01:11,0,0.382,,,,,,
2022-04-19 18:11:11,0,0.361,,,,,,
2022-04-19 18:21:11,0,0.34,,,,,,
2022-04-19 18:31:11,0,0.34,,,,,,
2022-04-19 18:41:11,0,0.34,,,,,,
2022-04-19 18:51:11,0,0.319,,,,,,
2022-04-19 19:01:11,0,0.319,,,,,,
2022-04-19 19:11:11,0,0.319,,,,,,
2022-04-19 19:21:11,0,0.319,,,,,,
2022-04-19 19:31:11,0,0.319,,,,,,
2022-04-19 19:41:11,0,0.319,,,,,,
2022-04-19 19:51:11,0,0.319,,,,,,
2022-04-19 20:01:11,0,0.319,,,,,,
2022-04-19 20:11:11,0,0.319,,,,,,
2022-04-19 20:21:11,0,0.319,,,,,,
2022-04-19 20:31:11,0,0.319,,,,,,
2022-04-19 20:41:11,0,0.319,,,,,,
2022-04-19 20:51:11,0,0.319,,,,,,
2022-04-19 21:01:11,0,0.319,,,,,,
2022-04-19 21:11:11,0,0.319,,,,,,
2022-04-19 21:21:11,0,0.319,,,,,,
2022-04-19 21:31:11,0,0.319,,,,,,
2022-04-19 21:41:11,0,0.319,,,,,,
2022-04-19 21:51:11,0,0.319,,,,,,
2022-04-19 22:01:11,0,0.319,,,,,,
2022-04-19 22:11:11,0,0.319,,,,,,
2022-04-19 22:21:11,0,0.319,,,,,,
2022-04-19 22:31:11,0,0.319,,,,,,
2022-04-19 22:41:11,0,0.319,,,,,,
2022-04-19 22:51:11,0,0.319,,,,,,
2022-04-19 23:01:11,0,0.319,,,,,,
2022-04-19 23:11:11,0,0.319,,,,,,
2022-04-19 23:21:11,0,0.319,,,,,,
2022-04-19 23:31:11,0,0.319,,,,,,
2022-04-19 23:41:11,0,0.319,,,,,,
2022-04-19 23:51:11,0,0.319,,,,,,
2022-04-20 00:01:11,0,0.319,,,,,,
2022-04-20 00:11:11,0,0.319,,,,,,
2022-04-20 00:21:11,0,0.319,,,,,,
2022-04-20 00:31:11,0,0.319,,,,,,
2022-04-20 00:41:11,0,0.319,,,,,,
2022-04-20 00:51:11,0,0.319,,,,,,
2022-04-20 01:01:11,0,0.319,,,,,,
2022-04-20 01:11:11,0,0.319,,,,,,
2022-04-20 01:21:11,0,0.319,,,,,,
2022-04-20 01:31:11,0,0.319,,,,,,
2022-04-20 01:41:11,0,0.319,,,,,,
2022-04-20 01:51:11,0,0.319,,,,,,
2022-04-20 02:01:11,0,0.278,,,,,,
2022-04-20 02:11:11,0,0.25,,,,,,
2022-04-20 02:21:11,0,0.146,,,,,,
2022-04-20 02:31:11,0,0.111,,,,,,
2022-04-20 02:41:11,0,0.049,,,,,,
2022-04-20 02:51:11,0,0.021,,,,,,
2022-04-20 03:01:11,0,0,,,,,,
2022-04-20 03:11:11,0,0,,,,,,
2022-04-20 03:21:11,0,0,,,,,,
2022-04-20 03:31:11,1.67,0.035,,,,,,
2022-04-20 03:41:11,4.67,0.097,,,,,,
2022-04-20 03:51:11,8.33,0.174,,,,,,
2022-04-20 04:01:11,10,0.243,,,,,,
2022-04-20 04:11:11,8.33,0.271,,,,,,
2022-04-20 04:21:11,4.67,0.271,,,,,,
2022-04-20 04:31:11,1.33,0.271,,,,,,
2022-04-20 04:41:11,0,0.271,,,,,,
2022-04-20 04:51:11,0,0.271,,,,,,
2022-04-20 05:01:11,0,0.271,,,,,,
2022-04-20 05:11:11,0,0.271,,,,,,
2022-04-20 05:21:11,0,0.271,,,,,,
2022-04-20 05:31:11,0,0.271,,,,,,